When you browse on this site, cookies collect data to enhance your experience and personalize the content and advertising you see.
Visit our Privacy Policy to learn more. By continuing to use the site, you agree to this use of cookies and data.
  • In Romania
  • List of Countries
  • For 7 days
  • Water Temperature
  • Satellite Maps
  • Weather Map
  • Weather Widgets
  • user-avatar
    Login

    Hourly Weather Lyubohovo

    Today, 20 January, Sunday

    Time Temperature Precipitation Wind Pressure Humidity
    00:00 -10°C° 0 mm 3 mps 744 mmHg 92%
    01:00 -9°C° 0 mm 3 mps 744 mmHg 90%
    02:00 -8°C° 0 mm 4 mps 744 mmHg 88%
    03:00 -8°C° 0 mm 4 mps 743 mmHg 87%
    04:00 -8°C° 0 mm 4 mps 743 mmHg 87%
    05:00 -8°C° 0 mm 5 mps 742 mmHg 87%
    06:00 -8°C° 0.1 mm 5 mps 742 mmHg 87%
    07:00 -8°C° 0.1 mm 5 mps 741 mmHg 86%
    08:00 -9°C° 0.1 mm 6 mps 741 mmHg 86%
    09:00 -8°C° 0.1 mm 6 mps 741 mmHg 85%
    10:00 -6°C° 0.1 mm 6 mps 740 mmHg 84%
    11:00 -6°C° 0.1 mm 6 mps 740 mmHg 83%
    12:00 -5°C° 0.2 mm 6 mps 740 mmHg 84%
    13:00 -5°C° 0.2 mm 6 mps 739 mmHg 85%
    14:00 -5°C° 0.2 mm 6 mps 739 mmHg 86%
    15:00 -6°C° 0.1 mm 5 mps 739 mmHg 85%
    16:00 -6°C° 0.1 mm 5 mps 739 mmHg 83%
    17:00 -7°C° 0.1 mm 4 mps 739 mmHg 82%
    18:00 -8°C° 0 mm 4 mps 739 mmHg 83%
    19:00 -8°C° 0 mm 5 mps 739 mmHg 84%
    20:00 -10°C° 0 mm 5 mps 739 mmHg 85%
    21:00 -10°C° 0 mm 4 mps 739 mmHg 86%
    22:00 -10°C° 0 mm 4 mps 740 mmHg 87%
    23:00 -11°C° 0 mm 4 mps 740 mmHg 88%

    Tomorrow, 21 January, Monday

    Time Temperature Precipitation Wind Pressure Humidity
    00:00 -10°C° 0 mm 3 mps 740 mmHg 89%
    01:00 -10°C° 0 mm 3 mps 741 mmHg 90%
    02:00 -12°C° 0 mm 3 mps 741 mmHg 91%
    03:00 -10°C° 0 mm 2 mps 741 mmHg 92%
    04:00 -12°C° 0 mm 2 mps 741 mmHg 93%
    05:00 -13°C° 0 mm 2 mps 741 mmHg 93%
    06:00 -14°C° 0 mm 2 mps 741 mmHg 94%
    07:00 -15°C° 0 mm 2 mps 742 mmHg 95%
    08:00 -15°C° 0 mm 2 mps 742 mmHg 96%
    09:00 -14°C° 0 mm 2 mps 742 mmHg 93%
    10:00 -14°C° 0 mm 3 mps 742 mmHg 90%
    11:00 -13°C° 0 mm 3 mps 743 mmHg 87%
    12:00 -14°C° 0 mm 3 mps 743 mmHg 86%
    13:00 -14°C° 0 mm 3 mps 743 mmHg 86%
    14:00 -14°C° 0 mm 3 mps 743 mmHg 85%
    15:00 -15°C° 0 mm 3 mps 744 mmHg 87%
    16:00 -17°C° 0 mm 3 mps 744 mmHg 90%
    17:00 -17°C° 0 mm 2 mps 744 mmHg 92%
    18:00 -18°C° 0 mm 2 mps 745 mmHg 93%
    19:00 -19°C° 0 mm 2 mps 745 mmHg 94%
    20:00 -22°C° 0 mm 3 mps 745 mmHg 95%
    21:00 -20°C° 0 mm 2 mps 745 mmHg 96%
    22:00 -21°C° 0 mm 2 mps 746 mmHg 96%
    23:00 -23°C° 0 mm 2 mps 746 mmHg 97%

    Day after tomorrow, 22 January, Tuesday

    Time Temperature Precipitation Wind Pressure Humidity
    00:00 -23°C° 0 mm 2 mps 746 mmHg 97%
    01:00 -23°C° 0 mm 2 mps 747 mmHg 97%
    02:00 -23°C° 0 mm 2 mps 747 mmHg 97%
    03:00 -23°C° 0 mm 2 mps 747 mmHg 97%
    04:00 -23°C° 0 mm 2 mps 747 mmHg 97%
    05:00 -23°C° 0 mm 2 mps 747 mmHg 97%
    06:00 -23°C° 0 mm 2 mps 748 mmHg 97%
    07:00 -23°C° 0 mm 2 mps 748 mmHg 97%
    08:00 -23°C° 0 mm 2 mps 748 mmHg 97%
    09:00 -21°C° 0 mm 2 mps 749 mmHg 96%
    10:00 -19°C° 0 mm 2 mps 749 mmHg 95%
    11:00 -18°C° 0 mm 2 mps 749 mmHg 94%
    12:00 -16°C° 0 mm 1 mps 749 mmHg 94%
    13:00 -15°C° 0 mm 1 mps 749 mmHg 94%
    14:00 -15°C° 0 mm 1 mps 749 mmHg 94%
    15:00 -16°C° 0 mm 1 mps 749 mmHg 95%
    16:00 -17°C° 0 mm 1 mps 749 mmHg 95%
    17:00 -18°C° 0 mm 1 mps 750 mmHg 96%
    18:00 -19°C° 0 mm 1 mps 750 mmHg 96%
    19:00 -19°C° 0 mm 1 mps 750 mmHg 96%
    20:00 -19°C° 0 mm 1 mps 750 mmHg 95%
    21:00 -20°C° 0 mm 1 mps 750 mmHg 95%
    22:00 -20°C° 0 mm 1 mps 750 mmHg 94%
    23:00 -20°C° 0 mm 1 mps 750 mmHg 93%

    23 January, Wednesday

    Time Temperature Precipitation Wind Pressure Humidity
    00:00 -21°C° 0 mm 1 mps 750 mmHg 93%
    01:00 -21°C° 0 mm 1 mps 750 mmHg 93%
    02:00 -24°C° 0 mm 2 mps 750 mmHg 93%
    03:00 -24°C° 0 mm 2 mps 750 mmHg 95%
    04:00 -24°C° 0 mm 2 mps 750 mmHg 96%
    05:00 -24°C° 0 mm 2 mps 749 mmHg 98%
    06:00 -24°C° 0 mm 2 mps 749 mmHg 98%
    07:00 -23°C° 0 mm 2 mps 749 mmHg 99%
    08:00 -23°C° 0 mm 2 mps 750 mmHg 99%
    09:00 -20°C° 0 mm 2 mps 749 mmHg 97%
    10:00 -18°C° 0 mm 2 mps 749 mmHg 96%
    11:00 -17°C° 0 mm 3 mps 749 mmHg 94%
    12:00 -16°C° 0 mm 3 mps 749 mmHg 93%
    13:00 -15°C° 0 mm 3 mps 749 mmHg 91%
    14:00 -14°C° 0 mm 3 mps 749 mmHg 90%
    15:00 -13°C° 0 mm 3 mps 749 mmHg 91%
    16:00 -12°C° 0 mm 2 mps 749 mmHg 92%
    17:00 -12°C° 0 mm 2 mps 749 mmHg 93%
    18:00 -10°C° 0 mm 2 mps 749 mmHg 93%
    19:00 -10°C° 0 mm 3 mps 749 mmHg 92%
    20:00 -9°C° 0 mm 3 mps 748 mmHg 92%
    21:00 -9°C° 0 mm 3 mps 749 mmHg 91%
    22:00 -9°C° 0 mm 3 mps 749 mmHg 90%
    23:00 -9°C° 0 mm 4 mps 749 mmHg 90%

    24 January, Thursday

    Time Temperature Precipitation Wind Pressure Humidity
    00:00 -9°C° 0 mm 3 mps 749 mmHg 90%
    01:00 -12°C° 0 mm 3 mps 749 mmHg 91%
    02:00 -13°C° 0 mm 3 mps 749 mmHg 92%
    03:00 -13°C° 0 mm 3 mps 749 mmHg 93%
    04:00 -14°C° 0 mm 3 mps 750 mmHg 93%
    05:00 -14°C° 0 mm 3 mps 750 mmHg 94%
    06:00 -14°C° 0 mm 2 mps 750 mmHg 94%
    07:00 -15°C° 0 mm 2 mps 750 mmHg 93%
    08:00 -15°C° 0 mm 2 mps 750 mmHg 93%
    09:00 -15°C° 0 mm 2 mps 750 mmHg 91%
    10:00 -14°C° 0 mm 2 mps 750 mmHg 89%
    11:00 -13°C° 0 mm 2 mps 751 mmHg 87%
    12:00 -11°C° 0 mm 1 mps 751 mmHg 88%
    13:00 -10°C° 0 mm 1 mps 751 mmHg 89%
    14:00 -10°C° 0 mm 1 mps 751 mmHg 89%
    15:00 -11°C° 0 mm 1 mps 751 mmHg 89%
    16:00 -12°C° 0 mm 1 mps 751 mmHg 89%
    17:00 -14°C° 0 mm 1 mps 751 mmHg 88%
    18:00 -14°C° 0 mm 1 mps 751 mmHg 88%
    19:00 -15°C° 0 mm 1 mps 751 mmHg 87%
    20:00 -15°C° 0 mm 1 mps 751 mmHg 87%
    21:00 -15°C° 0 mm 1 mps 751 mmHg 87%
    22:00 -16°C° 0 mm 1 mps 751 mmHg 87%
    23:00 -16°C° 0 mm 1 mps 751 mmHg 87%

    25 January, Friday

    Time Temperature Precipitation Wind Pressure Humidity
    00:00 -16°C° 0 mm 1 mps 751 mmHg 88%
    01:00 -16°C° 0 mm 1 mps 751 mmHg 89%
    02:00 -18°C° 0 mm 2 mps 751 mmHg 89%
    03:00 -18°C° 0 mm 2 mps 751 mmHg 89%
    04:00 -17°C° 0 mm 2 mps 751 mmHg 89%
    05:00 -17°C° 0 mm 2 mps 751 mmHg 89%
    06:00 -17°C° 0 mm 2 mps 751 mmHg 89%
    07:00 -17°C° 0 mm 2 mps 751 mmHg 89%
    08:00 -18°C° 0 mm 2 mps 751 mmHg 89%
    09:00 -17°C° 0 mm 2 mps 751 mmHg 88%
    10:00 -17°C° 0 mm 2 mps 751 mmHg 87%
    11:00 -17°C° 0 mm 3 mps 751 mmHg 86%
    12:00 -17°C° 0 mm 3 mps 750 mmHg 87%
    13:00 -16°C° 0 mm 3 mps 750 mmHg 88%
    14:00 -16°C° 0 mm 3 mps 749 mmHg 89%
    15:00 -16°C° 0 mm 3 mps 749 mmHg 90%
    16:00 -17°C° 0 mm 3 mps 749 mmHg 91%
    17:00 -17°C° 0 mm 3 mps 749 mmHg 93%
    18:00 -17°C° 0 mm 3 mps 748 mmHg 93%
    19:00 -17°C° 0 mm 3 mps 748 mmHg 93%
    20:00 -17°C° 0 mm 3 mps 748 mmHg 93%
    21:00 -17°C° 0 mm 3 mps 748 mmHg 94%
    22:00 -16°C° 0 mm 2 mps 747 mmHg 94%
    23:00 -16°C° 0 mm 2 mps 747 mmHg 95%
    Show more